| time (UTC) | temp F | wind direction | speed knots | gust knots | rain 1hr in | rain 24hr in | rain mn in | humidity % | barometer mb |
| 20260505230435 | 76 | 212 | 0.0 | 0.9 | 0.00 | 0.00 | 0.00 | 39 | 1009.4 |
| 20260505225931 | 77 | 230 | 0.9 | 2.6 | 0.00 | 0.00 | 0.00 | 39 | 1009.3 |
| 20260505225428 | 77 | 258 | 0.9 | 1.7 | 0.00 | 0.00 | 0.00 | 38 | 1009.3 |
| 20260505224923 | 78 | 265 | 0.0 | 1.7 | 0.00 | 0.00 | 0.00 | 39 | 1009.3 |
| 20260505224421 | 79 | 209 | 1.7 | 3.5 | 0.00 | 0.00 | 0.00 | 35 | 1009.4 |
| 20260505223918 | 78 | 204 | 1.7 | 3.5 | 0.00 | 0.00 | 0.00 | 34 | 1009.4 |
| 20260505223415 | 78 | 219 | 1.7 | 2.6 | 0.00 | 0.00 | 0.00 | 36 | 1009.3 |
| 20260505222911 | 78 | 257 | 3.5 | 6.1 | 0.00 | 0.00 | 0.00 | 36 | 1009.4 |
| 20260505222407 | 78 | 278 | 0.9 | 5.2 | 0.00 | 0.00 | 0.00 | 36 | 1009.3 |
| 20260505221904 | 79 | 250 | 1.7 | 3.5 | 0.00 | 0.00 | 0.00 | 36 | 1009.5 |
| 20260505221401 | 79 | 268 | 0.9 | 2.6 | 0.00 | 0.00 | 0.00 | 33 | 1009.5 |
| 20260505220858 | 79 | 268 | 4.3 | 6.1 | 0.00 | 0.00 | 0.00 | 33 | 1009.5 |
| 20260505220355 | 79 | 249 | 2.6 | 6.1 | 0.00 | 0.00 | 0.00 | 36 | 1009.4 |
| 20260505215853 | 79 | 262 | 2.6 | 2.6 | 0.00 | 0.00 | 0.00 | 35 | 1009.3 |
| 20260505215351 | 79 | 264 | 0.9 | 2.6 | 0.00 | 0.00 | 0.00 | 34 | 1009.4 |
| 20260505214849 | 80 | 276 | 0.9 | 5.2 | 0.00 | 0.00 | 0.00 | 32 | 1009.1 |
| 20260505214346 | 80 | 238 | 3.5 | 7.8 | 0.00 | 0.00 | 0.00 | 34 | 1009.2 |
| 20260505213843 | 80 | 229 | 4.3 | 7.0 | 0.00 | 0.00 | 0.00 | 33 | 1009.0 |
| 20260505213341 | 80 | 198 | 2.6 | 6.1 | 0.00 | 0.00 | 0.00 | 33 | 1008.9 |
| 20260505212836 | 80 | 255 | 1.7 | 2.6 | 0.00 | 0.00 | 0.00 | 32 | 1009.0 |
| 20260505212333 | 80 | 286 | 1.7 | 7.8 | 0.00 | 0.00 | 0.00 | 30 | 1008.8 |
| 20260505211829 | 80 | 258 | 4.3 | 8.7 | 0.00 | 0.00 | 0.00 | 30 | 1008.9 |
| 20260505211328 | 81 | 269 | 4.3 | 7.0 | 0.00 | 0.00 | 0.00 | 31 | 1009.0 |
| 20260505210824 | 81 | 257 | 3.5 | 5.2 | 0.00 | 0.00 | 0.00 | 31 | 1009.2 |
| 20260505210321 | 81 | 248 | 4.3 | 11.3 | 0.00 | 0.00 | 0.00 | 30 | 1009.1 |
| 20260505205817 | 81 | 242 | 3.5 | 7.0 | 0.00 | 0.00 | 0.00 | 31 | 1009.1 |
| 20260505205316 | 81 | 273 | 4.3 | 9.6 | 0.00 | 0.00 | 0.00 | 29 | 1009.2 |
| 20260505204812 | 82 | 245 | 7.0 | 8.7 | 0.00 | 0.00 | 0.00 | 29 | 1009.2 |
| 20260505204310 | 82 | 280 | 3.5 | 7.8 | 0.00 | 0.00 | 0.00 | 29 | 1009.2 |
| 20260505203807 | 82 | 244 | 4.3 | 9.6 | 0.00 | 0.00 | 0.00 | 29 | 1009.2 |
| 20260505203304 | 82 | 230 | 3.5 | 5.2 | 0.00 | 0.00 | 0.00 | 29 | 1008.9 |
| 20260505202800 | 82 | 269 | 3.5 | 5.2 | 0.00 | 0.00 | 0.00 | 30 | 1008.9 |
| 20260505202256 | 82 | 298 | 3.5 | 7.0 | 0.00 | 0.00 | 0.00 | 29 | 1008.8 |
| 20260505201753 | 82 | 167 | 3.5 | 5.2 | 0.00 | 0.00 | 0.00 | 30 | 1008.9 |
| 20260505201250 | 82 | 257 | 9.6 | 11.3 | 0.00 | 0.00 | 0.00 | 29 | 1008.9 |
| 20260505200749 | 83 | 246 | 3.5 | 7.0 | 0.00 | 0.00 | 0.00 | 28 | 1009.2 |
| 20260505200246 | 83 | 272 | 5.2 | 7.8 | 0.00 | 0.00 | 0.00 | 29 | 1008.9 |
| 20260505195741 | 85 | 245 | 3.5 | 6.1 | 0.00 | 0.00 | 0.00 | 25 | 1009.0 |
| 20260505195239 | 84 | 173 | 3.5 | 6.1 | 0.00 | 0.00 | 0.00 | 28 | 1008.9 |
| 20260505194736 | 83 | 281 | 3.5 | 6.1 | 0.00 | 0.00 | 0.00 | 32 | 1008.9 |
| 20260505194232 | 83 | 274 | 4.3 | 8.7 | 0.00 | 0.00 | 0.00 | 30 | 1009.1 |
| 20260505193728 | 84 | 248 | 5.2 | 6.1 | 0.00 | 0.00 | 0.00 | 30 | 1009.3 |
| 20260505193225 | 83 | 181 | 5.2 | 9.6 | 0.00 | 0.00 | 0.00 | 26 | 1009.1 |
| 20260505192724 | 83 | 234 | 3.5 | 5.2 | 0.00 | 0.00 | 0.00 | 26 | 1009.2 |
| 20260505192221 | 84 | 156 | 5.2 | 7.0 | 0.00 | 0.00 | 0.00 | 27 | 1009.4 |
| 20260505191719 | 84 | 233 | 3.5 | 12.2 | 0.00 | 0.00 | 0.00 | 27 | 1009.3 |
| 20260505191218 | 84 | 172 | 7.8 | 8.7 | 0.00 | 0.00 | 0.00 | 26 | 1009.5 |
| 20260505190713 | 85 | 134 | 7.8 | 9.6 | 0.00 | 0.00 | 0.00 | 25 | 1009.5 |
| 20260505190213 | 84 | 240 | 7.0 | 12.2 | 0.00 | 0.00 | 0.00 | 30 | 1009.3 |
| 20260505185710 | 85 | 270 | 7.8 | 11.3 | 0.00 | 0.00 | 0.00 | 29 | 1009.9 |
| 20260505185206 | 84 | 261 | 2.6 | 6.1 | 0.00 | 0.00 | 0.00 | 29 | 1009.5 |
| 20260505184702 | 82 | 202 | 3.5 | 8.7 | 0.00 | 0.00 | 0.00 | 31 | 1009.7 |
| 20260505184200 | 84 | 205 | 10.4 | 12.2 | 0.00 | 0.00 | 0.00 | 29 | 1010.0 |
| 20260505183656 | 84 | 221 | 5.2 | 8.7 | 0.00 | 0.00 | 0.00 | 31 | 1010.1 |
| 20260505183154 | 84 | 248 | 1.7 | 3.5 | 0.00 | 0.00 | 0.00 | 32 | 1010.2 |
| 20260505182650 | 82 | 257 | 4.3 | 7.0 | 0.00 | 0.00 | 0.00 | 30 | 1010.1 |
| 20260505182148 | 82 | 179 | 5.2 | 7.0 | 0.00 | 0.00 | 0.00 | 31 | 1010.3 |
| 20260505181644 | 82 | 177 | 2.6 | 6.1 | 0.00 | 0.00 | 0.00 | 33 | 1010.4 |
| 20260505181141 | 82 | 278 | 3.5 | 3.5 | 0.00 | 0.00 | 0.00 | 31 | 1010.4 |
| 20260505180637 | 81 | 250 | 2.6 | 7.0 | 0.00 | 0.00 | 0.00 | 32 | 1010.6 |
| 20260505180135 | 82 | 165 | 7.0 | 8.7 | 0.00 | 0.00 | 0.00 | 32 | 1010.5 |
| 20260505175631 | 82 | 210 | 9.6 | 14.8 | 0.00 | 0.00 | 0.00 | 32 | 1010.4 |
| 20260505175127 | 83 | 134 | 2.6 | 6.1 | 0.00 | 0.00 | 0.00 | 30 | 1010.6 |
| 20260505174624 | 82 | 179 | 7.0 | 8.7 | 0.00 | 0.00 | 0.00 | 30 | 1010.8 |
| 20260505174120 | 83 | 132 | 3.5 | 11.3 | 0.00 | 0.00 | 0.00 | 34 | 1010.8 |
| 20260505173617 | 82 | 210 | 3.5 | 7.8 | 0.00 | 0.00 | 0.00 | 34 | 1010.8 |
| 20260505173114 | 81 | 169 | 3.5 | 7.0 | 0.00 | 0.00 | 0.00 | 37 | 1010.8 |
| 20260505172611 | 80 | 240 | 3.5 | 7.0 | 0.00 | 0.00 | 0.00 | 36 | 1011.1 |
| 20260505172108 | 81 | 232 | 7.0 | 8.7 | 0.00 | 0.00 | 0.00 | 33 | 1011.2 |
| 20260505171602 | 80 | 256 | 5.2 | 9.6 | 0.00 | 0.00 | 0.00 | 34 | 1011.0 |
| 20260505171100 | 81 | 218 | 3.5 | 6.1 | 0.00 | 0.00 | 0.00 | 32 | 1011.1 |
| 20260505170556 | 82 | 272 | 7.0 | 8.7 | 0.00 | 0.00 | 0.00 | 34 | 1011.2 |
| 20260505170053 | 80 | 244 | 6.1 | 8.7 | 0.00 | 0.00 | 0.00 | 33 | 1011.1 |
| 20260505165548 | 81 | 216 | 4.3 | 9.6 | 0.00 | 0.00 | 0.00 | 33 | 1011.2 |
| 20260505165044 | 81 | 207 | 7.8 | 9.6 | 0.00 | 0.00 | 0.00 | 33 | 1011.4 |
| 20260505164540 | 81 | 220 | 6.1 | 13.9 | 0.00 | 0.00 | 0.00 | 33 | 1011.5 |
| 20260505164038 | 80 | 261 | 7.8 | 9.6 | 0.00 | 0.00 | 0.00 | 34 | 1011.8 |
| 20260505163537 | 80 | 270 | 2.6 | 7.8 | 0.00 | 0.00 | 0.00 | 39 | 1011.7 |
| 20260505163033 | 79 | 217 | 9.6 | 13.0 | 0.00 | 0.00 | 0.00 | 35 | 1012.0 |
| 20260505162526 | 78 | 199 | 7.8 | 13.9 | 0.00 | 0.00 | 0.00 | 35 | 1012.0 |
| 20260505162023 | 79 | 150 | 4.3 | 8.7 | 0.00 | 0.00 | 0.00 | 35 | 1012.2 |
| 20260505161520 | 79 | 258 | 4.3 | 7.8 | 0.00 | 0.00 | 0.00 | 36 | 1012.4 |
| 20260505161017 | 79 | 304 | 7.8 | 12.2 | 0.00 | 0.00 | 0.00 | 38 | 1012.1 |
| 20260505160515 | 79 | 204 | 6.1 | 8.7 | 0.00 | 0.00 | 0.00 | 36 | 1012.2 |
| 20260505152951 | 78 | 250 | 6.1 | 11.3 | 0.00 | 0.00 | 0.00 | 38 | 1012.1 |
| 20260505152449 | 78 | 276 | 7.0 | 9.6 | 0.00 | 0.00 | 0.00 | 37 | 1012.3 |
| 20260505151943 | 78 | 237 | 5.2 | 13.0 | 0.00 | 0.00 | 0.00 | 36 | 1012.4 |
| 20260505151439 | 77 | 141 | 12.2 | 15.6 | 0.00 | 0.00 | 0.00 | 37 | 1012.0 |
| 20260505150937 | 76 | 212 | 6.1 | 9.6 | 0.00 | 0.00 | 0.00 | 39 | 1012.2 |
| 20260505150433 | 76 | 263 | 8.7 | 11.3 | 0.00 | 0.00 | 0.00 | 40 | 1012.3 |